Location: Marsån
(66.4167°N, 22.2833°E)
Time: 11:21:43
(UTC+00:00)

SKYMED 2 - Pass Details

Date: 24 February 2024
Orbit: 621 x 623 km, 97.9° (Epoch: 16 April)

Event Time Altitude Azimuth Distance (km) Brightness Sun altitude
Rises 16:49:15 0° 19° (NNE) 2,925 6.8 -9.2°
Reaches altitude 10° 16:51:29 10° 24° (NNE) 2,014 5.9 -9.4°
Maximum altitude 16:55:48 57° 103° (ESE) 743 3.6 -9.8°
Drops below altitude 10° 17:00:06 10° 183° (S) 2,000 6.2 -10.3°
Sets 17:02:20 0° 188° (S) 2,903 7.1 -10.5°
